Find Starlink 33672

NORAD ID: 63326 Int'l Des: 2025-057 Owner: SPXS Country: US Constellation: starlink operational
LEOCIRCULAR

当前视图

正在加载3D地球...

About Starlink 33672

Starlink 33672 (NORAD 63326) is a starlink constellation satellite (v2 mini) launched Mar 18, 2025 by SPXS of US. It operates in LEO, CIRCULAR orbit with a mass of 575.00 kg.

关于 Starlink 33672

正在加载描述...

即将过境

Passes for default location (London). Set your location on the main map for personalized predictions.

高度历史

Loading altitude history...

两行轨道根数

1 63326U 25057V 26166.79181740 .00015334 00000-0 56549-3 0 9995
2 63326 43.0042 196.5671 0001690 269.3642 90.7016 15.27585876 70787
Epoch: Jun 15, 2026 • Age: 11 hours

当前状态

高度 487.2 km
速度 7.63 km/s
星下点 42.89°N, 68.79°W
发射日期 Mar 18, 2025
运行时间 1.2 years
类型 internet

技术详情

分类 Payload
质量 575.00 kg
干质量 530.00 kg
总质量 575.00 kg
长度 0.30 m
直径 4.10 m
跨度 29.00 m
形状 Box + pan
制造商 SPXS
平台类型 Starlink V2MO
阶段状态 In Orbit
所有者/国家 SPXS/US

Most Searched